Flag for Canada Weather past 2 weeks in Kamloops, British Columbia, Canada

Now
45 °F

Partly sunny.


Feels Like: 40 °F
Forecast: 28 / 41 °F
Wind: 8 mph from East

Location: Kamloops

Current Time: Dec 19, 2014 at 3:42:31 PM

Latest Report: Dec 19, 2014 at 3:00 PM


Visibility: 40 mi

Pressure: 29.84 "Hg

Humidity: 66%

Dew point: 34 °F

Location of KamloopsLocation

Historic Weather in Kamloops — Graph

°F

Kamloops temperature yesterday

Maximum temperature yesterday: 39 °F (at 2:00 PM)
Minimum temperature yesterday: 32 °F (at 3:00 AM)
Average temperature yesterday: 36 °F

Past Weeks' High & Low Weather Summary

 TemperatureHumidityPressure
High59 °F (Dec 10, 1:00 PM)100% (Dec 7, 7:00 AM)30.40 "Hg (Dec 7, 7:00 AM)
Low19 °F (Dec 4, 9:00 PM)44% (Dec 11, 1:00 AM)29.22 "Hg (Dec 10, 8:00 PM)
Average36 °F79%29.98 "Hg
* Reported Dec 4 2:00 PM — Dec 19 2:00 PM, Kamloops, Weather by CustomWeather, © 2014

Note: Actual official high and low records may vary slightly from our data, if they occured in-between our weather recording intervals... More about our weather records

Advertising

Kamloops weather history for previous 24 hours

 ConditionsComfort  
Time TempWeatherWind HumidityBarometerVisibility
2:00 PM
Dec 19
45 °FPartly sunny.10 mph71%29.82 "Hg40 mi
1:00 PM43 °FPartly sunny.14 mph76%29.83 "Hg40 mi
12:00 PM41 °FBroken clouds.12 mph76%29.84 "Hg40 mi
11:00 AM39 °FBroken clouds.20 mph81%29.83 "Hg40 mi
10:00 AM39 °FBroken clouds.18 mph81%29.82 "Hg40 mi
9:00 AM39 °FPartly sunny.15 mph81%29.81 "Hg40 mi
8:00 AM37 °FMostly cloudy.18 mph81%29.80 "Hg40 mi
7:00 AM37 °FMostly cloudy.17 mph81%29.78 "Hg30 mi
6:00 AM37 °FMostly cloudy.17 mph87%29.78 "Hg30 mi
5:00 AM39 °FMostly cloudy.15 mph81%29.78 "Hg30 mi
4:00 AM39 °FLight rain. Overcast.12 mph81%29.78 "Hg30 mi
3:04 AM39 °FLight rain. Mostly cloudy.10 mph81%29.80 "Hg30 mi
3:00 AM39 °FMostly cloudy.12 mph81%29.80 "Hg30 mi
2:00 AM39 °FMostly cloudy.12 mph81%29.80 "Hg30 mi
1:00 AM39 °FMostly cloudy.12 mph81%29.80 "Hg30 mi
12:00 AM39 °FOvercast.8 mph81%29.80 "Hg30 mi
11:45 PM
Dec 18
37 °FMostly cloudy.7 mph87%29.81 "Hg30 mi
11:00 PM37 °FMostly cloudy.10 mph81%29.82 "Hg30 mi
10:00 PM39 °FLight rain. Overcast.9 mph75%29.83 "Hg30 mi
9:00 PM39 °FOvercast.13 mph75%29.83 "Hg30 mi
8:00 PM37 °FOvercast.9 mph81%29.85 "Hg30 mi
7:00 PM39 °FMostly cloudy.10 mph75%29.86 "Hg30 mi
6:00 PM37 °FMostly cloudy.13 mph81%29.88 "Hg30 mi
5:00 PM37 °FMostly cloudy.13 mph81%29.88 "Hg30 mi
4:00 PM39 °FMostly cloudy.12 mph75%29.89 "Hg30 mi
3:00 PM37 °FMostly cloudy.13 mph81%29.90 "Hg30 mi
Weather by CustomWeather, © 2014

See weather overviewHow to use our weather pages